Weather in Verkh-Suzun

Russia / Novosibirsk Oblast     53°40′50″N   82°17′31″E
temp.,
°C
wind,
m/s
gust,
m/s
humid.,
%
clouds,
%
prec.,
mm/h
press.,
hPa
HPBL,
m
3 march, wed
wed301:00−15wsw119795 0.1 101720
04:00−18w119992 0.0 101820
07:00−18sw129894 0.1 101923
10:00−16sw139697 0.1 1020165
13:00−12sw249299 0.3 1020367
16:00−9sw3589100 0.1 1021500
19:00−12ssw239597 0.2 102228
22:00−13sw399588 0.1 1024294
4 march, thu
thu401:00−16s389579 0.1 1024207
04:00−14s3119262 0.0 1023386
07:00−11ssw4129081 0.3 1023560
10:00−9ssw51287100 0.0 1022598
13:00−6ssw61386100 0.0 1021663
16:00−4ssw61386100 0.0 1020693
19:00−5ssw51386100 0.0 1019583
22:00−8s3148983 0.0 1018469
5 march, fri
fri501:00−7ssw4148576 0.0 1016512
04:00−8ssw41584100 0.0 1015488
07:00−8ssw41484100 0.0 1013500
10:00−5sw61390100 0.9 1013772
13:00−2wsw81492100 1.8 1015988
16:00−2wsw7137668 0.2 10181104
19:00−5sw6158177 0.2 1020870
22:00−6sw81690100 0.2 10201103
6 march, sat
sat601:00−5sw71491100 0.9 1021968
04:00−5sw61493100 0.8 1021797
07:00−5sw61494100 2.2 1021791
10:00−6sw71583100 0.4 1020832
13:00−4sw71679100 0.4 1018804
16:00−3sw7157952 0.0 1016895
19:00−4sw6158164 0.0 1016918
22:00−5sw6168181 0.0 1016758
7 march, sun
sun701:00−4sw6158589 0.0 1017695
04:00−5sw41292100 0.0 1017520
07:00−8ssw3795100 0.1 1018217
10:00−6ssw4990100 0.0 1017420
13:00−3ssw51183100 0.1 1017659
16:00−1ssw51278100 0.0 1015728
19:00−3ssw41382100 0.0 1015539
22:00−3sw41486100 0.0 1015529